Location: *
(46.3500°N, 10.9000°E)
Time: 23:39:37
(UTC+00:00)

Vanguard 2 - Pass Details

Date: 21 April 2021
Orbit: 552 x 2938 km, 32.9° (Epoch: 12 May)

Event Time Altitude Azimuth Distance (km) Brightness Sun altitude
Rises 12:34:22 0° 245° (WSW) 6,638 12.8 51.8°
Reaches altitude 10° 12:39:26 10° 239° (WSW) 5,420 12.6 51.3°
Maximum altitude 12:53:06 41° 178° (S) 2,724 11.6 49.9°
Drops below altitude 10° 13:02:10 10° 112° (ESE) 3,630 10.9 48.9°
Sets 13:04:51 0° 105° (ESE) 4,322 11.2 48.6°
